EW8119 Weather Reports


time (UTC)temp
C
wind
direction
speed
KPH
gust
KPH
rain 1hr
cm
rain 24hr
cm
rain mn
cm
humidity
%
barometer
mb
20260505114403 3 38 14.5 32.2 0.05 0.03 0.03 90 1012.9
20260505113859 3 62 14.5 20.9 0.00 0.03 0.03 90 1012.8
20260505113356 3 35 4.8 17.7 0.05 0.03 0.03 91 1012.8
20260505112852 4 41 11.3 14.5 0.00 0.00 0.00 91 1013.0
20260505112350 4 38 9.7 24.1 0.00 0.00 0.00 91 1012.7
20260505111845 4 77 1.6 16.1 0.00 0.00 0.00 92 1012.7
20260505111340 4 55 4.8 20.9 0.00 0.00 0.00 92 1012.5
20260505110837 4 58 9.7 19.3 0.00 0.00 0.00 92 1012.4
20260505110334 5 72 8.0 19.3 0.00 0.00 0.00 91 1012.2
20260505101809 6 51 9.7 14.5 0.00 0.00 0.00 89 1011.5
20260505101304 6 164 4.8 17.7 0.00 0.00 0.00 89 1011.4
20260505100801 6 75 11.3 14.5 0.00 0.00 0.00 89 1011.3
20260505100257 6 38 6.4 19.3 0.00 0.00 0.00 89 1011.0
20260505095753 6 73 6.4 16.1 0.00 0.00 0.00 89 1010.9
20260505095251 6 46 9.7 17.7 0.00 0.00 0.00 89 1011.3
20260505094746 6 35 9.7 17.7 0.00 0.00 0.00 89 1011.3
20260505094243 7 29 4.8 11.3 0.00 0.00 0.00 88 1011.3
20260505093739 7 37 4.8 17.7 0.00 0.00 0.00 87 1011.0
20260505093237 7 36 4.8 14.5 0.00 0.00 0.00 86 1011.3
20260505092733 7 40 6.4 8.0 0.00 0.00 0.00 85 1010.9
20260505092232 7 66 4.8 6.4 0.00 0.00 0.00 84 1011.1
20260505091729 7 45 3.2 6.4 0.00 0.00 0.00 84 1011.0
20260505091228 7 75 3.2 8.0 0.00 0.00 0.00 85 1010.9
20260505090725 8 64 6.4 6.4 0.00 0.00 0.00 84 1011.0
20260505090223 8 75 8.0 9.7 0.00 0.00 0.00 82 1011.0
20260505085719 8 69 6.4 9.7 0.00 0.00 0.00 81 1010.8
20260505085218 8 45 4.8 6.4 0.00 0.00 0.00 81 1011.0
20260505084715 8 94 4.8 8.0 0.00 0.00 0.00 81 1011.4
20260505084214 8 5 9.7 9.7 0.00 0.00 0.00 80 1011.3
20260505083710 8 349 0.0 8.0 0.00 0.00 0.00 80 1011.3
20260505083207 8 25 6.4 9.7 0.00 0.00 0.00 79 1011.3
20260505082703 8 29 4.8 11.3 0.00 0.00 0.00 83 1011.4
20260505082200 8 60 0.0 4.8 0.00 0.00 0.00 87 1011.6
20260505081656 8 36 3.2 4.8 0.00 0.00 0.00 87 1011.5
20260505081154 8 15 0.0 0.0 0.00 0.00 0.00 88 1011.5
20260505080651 8 53 3.2 4.8 0.00 0.00 0.00 87 1011.5
20260505080146 8 71 3.2 4.8 0.00 0.00 0.00 86 1011.0
20260505075642 8 77 4.8 4.8 0.00 0.00 0.00 86 1011.4
20260505075139 8 128 6.4 6.4 0.00 0.00 0.00 86 1011.3
20260505074636 8 127 3.2 8.0 0.00 0.00 0.00 85 1011.3
20260505074133 8 130 6.4 6.4 0.00 0.00 0.00 85 1011.4
20260505073631 8 146 4.8 14.5 0.00 0.00 0.00 86 1011.1
20260505073129 8 183 3.2 4.8 0.00 0.00 0.00 90 1011.5
20260505072624 8 162 3.2 6.4 0.00 0.00 0.00 92 1011.5
20260505072121 8 105 0.0 3.2 0.00 0.00 0.00 92 1011.5
20260505071617 8 151 1.6 3.2 0.00 0.00 0.00 92 1011.5
20260505071115 8 200 0.0 3.2 0.00 0.00 0.00 93 1011.8
20260505070612 8 151 0.0 3.2 0.00 0.00 0.00 93 1011.6
20260505070108 8 120 0.0 3.2 0.00 0.00 0.00 93 1011.5
20260505065604 8 165 0.0 1.6 0.00 0.00 0.00 93 1011.8
20260505065101 8 172 0.0 0.0 0.00 0.00 0.00 93 1011.8
20260505064557 8 151 3.2 3.2 0.00 0.00 0.00 93 1011.7
20260505064056 8 151 1.6 3.2 0.00 0.00 0.00 93 1011.5
20260505063553 8 151 0.0 3.2 0.00 0.00 0.00 93 1011.7
20260505063049 8 145 0.0 3.2 0.00 0.00 0.00 92 1011.8
20260505062545 8 174 0.0 4.8 0.00 0.00 0.00 92 1011.7
20260505062043 8 96 0.0 3.2 0.00 0.00 0.00 92 1011.5
20260505061540 8 123 0.0 3.2 0.00 0.00 0.00 92 1011.7
20260505061038 8 188 0.0 1.6 0.00 0.00 0.00 92 1012.1
20260505060535 8 157 1.6 1.6 0.00 0.00 0.00 92 1011.8
20260505060032 8 145 0.0 3.2 0.00 0.00 0.00 92 1011.8
20260505055527 8 156 3.2 4.8 0.00 0.18 0.18 92 1012.0
20260505055024 8 157 1.6 3.2 0.00 0.18 0.18 92 1012.0
20260505054521 8 154 1.6 4.8 0.00 0.18 0.18 92 1011.7
20260505054020 8 154 0.0 3.2 0.00 0.18 0.18 92 1011.4
20260505053516 8 151 0.0 3.2 0.00 0.18 0.18 92 1011.7
20260505053013 8 173 1.6 3.2 0.00 0.18 0.18 92 1011.8
20260505052510 8 151 0.0 4.8 0.00 0.18 0.18 91 1011.8
20260505052008 8 185 1.6 4.8 0.00 0.18 0.18 91 1011.7
20260505051504 8 180 1.6 3.2 0.00 0.18 0.18 91 1011.8
20260505051003 8 173 3.2 6.4 0.05 0.18 0.18 91 1011.7
20260505050500 8 198 3.2 9.7 0.13 0.18 0.18 91 1012.0
20260505041428 8 265 4.8 8.0 0.00 0.15 0.15 92 1012.3
20260505040925 8 273 11.3 14.5 0.05 0.15 0.15 91 1012.1
20260505040422 8 273 20.9 20.9 0.23 0.15 0.15 91 1012.2
20260505035919 8 278 12.9 20.9 0.43 0.13 0.13 90 1012.1
20260505035415 8 247 9.7 25.7 0.30 0.10 0.10 88 1012.1
20260505034912 8 255 6.4 24.1 0.05 0.05 0.05 84 1012.2
20260505034409 10 233 29.0 30.6 0.05 0.05 0.05 78 1012.0
20260505033906 11 190 9.7 17.7 0.00 0.05 0.05 71 1011.8
20260505033403 11 264 4.8 16.1 0.00 0.05 0.05 67 1011.7
20260505032901 11 334 11.3 12.9 0.00 0.05 0.05 64 1011.5
20260505032357 11 350 4.8 17.7 0.00 0.05 0.05 64 1011.4
20260505031854 11 23 4.8 11.3 0.00 0.05 0.05 64 1011.3
20260505031351 11 23 3.2 6.4 0.00 0.05 0.05 64 1011.0
20260505030848 11 71 3.2 4.8 0.00 0.05 0.05 63 1011.3
20260505030344 11 327 3.2 9.7 0.00 0.05 0.05 62 1011.1
20260505025839 11 333 12.9 12.9 0.00 0.05 0.05 64 1010.8
20260505025337 11 339 4.8 14.5 0.00 0.05 0.05 63 1010.7
20260505024836 11 323 4.8 9.7 0.00 0.05 0.05 63 1010.8
20260505024333 11 20 1.6 11.3 0.00 0.05 0.05 62 1010.5
20260505023830 11 39 11.3 22.5 0.00 0.05 0.05 61 1010.4
20260505023327 11 16 11.3 14.5 0.00 0.05 0.05 60 1010.4
20260505022824 12 71 6.4 17.7 0.00 0.05 0.05 60 1010.4
20260505022321 12 21 16.1 16.1 0.00 0.05 0.05 58 1010.5
20260505021819 12 38 6.4 11.3 0.00 0.05 0.05 59 1010.4
20260505021315 12 37 9.7 11.3 0.00 0.05 0.05 59 1010.4
20260505020811 12 36 8.0 12.9 0.00 0.05 0.05 59 1010.3
20260505020307 12 57 6.4 14.5 0.00 0.05 0.05 58 1010.7
20260505015804 12 16 8.0 12.9 0.00 0.05 0.05 59 1010.1
20260505015301 11 47 4.8 9.7 0.00 0.05 0.05 62 1010.2
20260505014758 11 56 3.2 6.4 0.00 0.05 0.05 65 1010.2
20260505014255 11 42 4.8 6.4 0.00 0.05 0.05 62 1010.3
20260505013751 11 40 3.2 3.2 0.00 0.05 0.05 62 1009.7
20260505013249 12 23 0.0 3.2 0.00 0.05 0.05 64 1009.8
20260505012747 12 90 0.0 3.2 0.00 0.05 0.05 61 1010.1
20260505012244 12 162 4.8 6.4 0.05 0.05 0.05 62 1010.1
20260505011739 12 178 4.8 11.3 0.13 0.05 0.05 63 1010.2
20260505011237 13 279 0.0 1.6 0.05 0.03 0.03 55 1010.0
20260505010732 13 90 1.6 6.4 0.05 0.03 0.03 48 1010.0
20260505010229 13 285 1.6 22.5 0.05 0.03 0.03 48 1010.3
20260505005725 13 225 11.3 11.3 0.05 0.00 0.00 54 1010.1
20260505005222 13 228 11.3 24.1 0.05 0.00 0.00 47 1010.3
20260505004719 13 78 4.8 8.0 0.00 0.00 0.00 47 1010.3
20260505004216 14 247 6.4 20.9 0.00 0.00 0.00 47 1010.4
20260505003713 15 350 6.4 19.3 0.00 0.00 0.00 41 1010.1
20260505003211 15 50 8.0 9.7 0.00 0.00 0.00 39 1009.6
20260505002707 15 351 6.4 19.3 0.00 0.00 0.00 38 1009.8
20260505002205 15 303 4.8 16.1 0.00 0.00 0.00 37 1009.6
20260505001702 15 50 4.8 16.1 0.00 0.00 0.00 37 1009.5
20260505001159 16 23 8.0 27.4 0.00 0.00 0.00 36 1009.4
20260505000656 16 7 12.9 27.4 0.00 0.00 0.00 35 1009.1
20260505000154 16 19 11.3 14.5 0.00 0.00 0.00 36 1009.4
20260504235650 16 0 9.7 14.5 0.00 0.00 0.00 36 1009.3
20260504235146 16 348 12.9 17.7 0.00 0.00 0.00 35 1009.3
20260504234644 16 44 12.9 29.0 0.00 0.00 0.00 35 1009.1
20260504234141 17 357 3.2 11.3 0.00 0.00 0.00 33 1009.0
20260504233637 17 49 4.8 16.1 0.00 0.00 0.00 32 1009.0
20260504233133 17 40 9.7 25.7 0.00 0.00 0.00 32 1008.8
20260504232631 17 21 4.8 32.2 0.00 0.00 0.00 31 1008.8
20260504232128 17 335 9.7 16.1 0.00 0.00 0.00 31 1008.5
20260504231624 17 356 9.7 20.9 0.00 0.00 0.00 31 1008.9
20260504231120 17 320 6.4 11.3 0.00 0.00 0.00 31 1008.5
20260504230616 17 0 4.8 11.3 0.00 0.00 0.00 31 1008.5
20260504230116 17 11 8.0 17.7 0.00 0.00 0.00 32 1008.5
20260504225613 17 6 11.3 20.9 0.00 0.00 0.00 31 1008.7
20260504225109 17 356 8.0 24.1 0.00 0.00 0.00 31 1008.4
20260504224606 17 18 12.9 24.1 0.00 0.00 0.00 31 1008.5
20260504224103 17 42 9.7 12.9 0.00 0.00 0.00 31 1008.5
20260504223600 17 32 19.3 22.5 0.00 0.00 0.00 31 1008.5
20260504223056 17 40 20.9 33.8 0.00 0.00 0.00 32 1008.2
20260504222553 17 17 16.1 29.0 0.00 0.00 0.00 31 1008.2
20260504222050 17 21 32.2 51.5 0.00 0.00 0.00 31 1008.0
20260504221548 17 6 19.3 20.9 0.00 0.00 0.00 30 1008.2
20260504221044 17 344 6.4 24.1 0.00 0.00 0.00 30 1008.1
20260504220541 17 13 14.5 24.1 0.00 0.00 0.00 29 1008.0
20260504220038 17 12 12.9 20.9 0.00 0.00 0.00 30 1007.6
20260504215534 17 322 12.9 20.9 0.00 0.00 0.00 30 1007.6
20260504215032 17 58 20.9 29.0 0.00 0.00 0.00 30 1007.4
20260504214527 19 21 14.5 49.9 0.00 0.00 0.00 27 1007.4
20260504214024 19 10 8.0 11.3 0.00 0.00 0.00 24 1007.8
20260504213521 19 10 6.4 19.3 0.00 0.00 0.00 23 1007.6
20260504213018 19 9 8.0 24.1 0.00 0.00 0.00 24 1007.7
20260504212513 20 0 1.6 22.5 0.00 0.00 0.00 23 1007.8
20260504212011 20 2 4.8 14.5 0.00 0.00 0.00 23 1008.0
20260504211508 20 261 4.8 12.9 0.00 0.00 0.00 22 1007.7
20260504211005 20 0 3.2 14.5 0.00 0.00 0.00 24 1008.1
20260504210502 20 285 4.8 11.3 0.00 0.00 0.00 22 1008.1
20260504205958 20 30 12.9 17.7 0.00 0.00 0.00 23 1008.1
20260504205456 19 21 11.3 16.1 0.00 0.00 0.00 24 1008.1
20260504204954 19 307 8.0 20.9 0.00 0.00 0.00 24 1008.2
20260504204452 19 0 0.0 14.5 0.00 0.00 0.00 23 1008.1
20260504203951 19 349 0.0 16.1 0.00 0.00 0.00 23 1008.3
20260504203449 19 318 4.8 30.6 0.00 0.00 0.00 23 1008.0
20260504202944 20 0 4.8 9.7 0.00 0.00 0.00 24 1008.2
20260504202441 20 287 3.2 16.1 0.00 0.00 0.00 23 1008.2
20260504201938 19 281 14.5 22.5 0.00 0.00 0.00 24 1008.1
20260504201435 18 229 14.5 25.7 0.00 0.00 0.00 26 1008.4
20260504200933 19 275 0.0 19.3 0.00 0.00 0.00 25 1008.2
20260504200429 19 277 14.5 20.9 0.00 0.00 0.00 24 1008.4
20260504195926 19 233 3.2 25.7 0.00 0.00 0.00 24 1008.5
20260504195422 19 260 4.8 24.1 0.00 0.00 0.00 23 1008.4
20260504194919 19 266 6.4 12.9 0.00 0.00 0.00 23 1008.7
20260504194414 19 8 3.2 8.0 0.00 0.00 0.00 23 1008.5
20260504193911 19 190 3.2 16.1 0.00 0.00 0.00 22 1008.8
20260504193408 19 120 3.2 25.7 0.00 0.00 0.00 24 1008.5
20260504192907 20 235 25.7 32.2 0.00 0.00 0.00 22 1008.7
20260504192404 20 281 4.8 16.1 0.00 0.00 0.00 22 1008.5
20260504191902 20 217 14.5 17.7 0.00 0.00 0.00 19 1008.3
20260504191400 20 290 3.2 11.3 0.00 0.00 0.00 18 1008.5
20260504190855 20 349 4.8 9.7 0.00 0.00 0.00 19 1008.3
20260504190351 20 255 3.2 16.1 0.00 0.00 0.00 19 1008.2
20260504185848 20 266 3.2 4.8 0.00 0.00 0.00 19 1008.3
20260504185345 20 17 6.4 8.0 0.00 0.00 0.00 19 1008.2
20260504184841 21 2 4.8 16.1 0.00 0.00 0.00 20 1008.3
20260504184337 21 344 6.4 14.5 0.00 0.00 0.00 20 1008.3
20260504183833 21 237 11.3 11.3 0.00 0.00 0.00 20 1008.4
20260504183331 21 338 11.3 20.9 0.00 0.00 0.00 21 1008.3
20260504182828 21 317 6.4 19.3 0.00 0.00 0.00 20 1008.5
20260504182325 21 259 6.4 20.9 0.00 0.00 0.00 21 1008.2
20260504181822 22 340 12.9 22.5 0.00 0.00 0.00 20 1008.7
20260504181320 22 22 11.3 17.7 0.00 0.00 0.00 20 1008.4
20260504180819 22 261 8.0 16.1 0.00 0.00 0.00 21 1008.3
20260504180316 22 248 16.1 20.9 0.00 0.00 0.00 20 1008.5
20260504175814 21 340 8.0 24.1 0.00 0.00 0.00 19 1008.7
20260504175311 22 11 4.8 16.1 0.00 0.00 0.00 21 1008.5
20260504174809 22 335 4.8 11.3 0.00 0.00 0.00 20 1008.9
20260504174306 21 352 8.0 17.7 0.00 0.00 0.00 21 1008.7
20260504173803 22 281 9.7 16.1 0.00 0.00 0.00 22 1008.9
20260504173259 21 334 9.7 29.0 0.00 0.00 0.00 21 1008.8
20260504172756 21 7 16.1 30.6 0.00 0.00 0.00 21 1009.1
20260504172253 22 335 11.3 12.9 0.00 0.00 0.00 21 1009.1
20260504171749 22 266 11.3 14.5 0.00 0.00 0.00 21 1009.3
20260504171246 21 268 8.0 17.7 0.00 0.00 0.00 21 1009.1
20260504170743 21 354 4.8 14.5 0.00 0.00 0.00 22 1009.1
20260504170240 21 274 11.3 19.3 0.00 0.00 0.00 21 1009.0
20260504160159 20 237 4.8 14.5 0.00 0.00 0.00 22 1009.5
20260504151127 17 237 8.0 17.7 0.00 0.00 0.00 24 1010.1
20260504150624 17 294 9.7 19.3 0.00 0.00 0.00 24 1010.2
20260504150121 17 255 11.3 17.7 0.00 0.00 0.00 24 1010.2
20260504141049 13 227 11.3 14.5 0.00 0.00 0.00 33 1010.1
20260504140546 13 229 20.9 20.9 0.00 0.00 0.00 33 1010.2
20260504130510 10 159 3.2 4.8 0.00 0.00 0.00 41 1010.1